RH
17 18 21 32 55 75 60 48 27 34 38 50 57 63 63 68 87 92 83 100 68 65 83 83 85 90 96 92 97 86 92 87 55
20 19 23 36 52 50 34 30 40 43 47 53 54 58 61 93 94 96 95 93 62 45 56 77 88 91 95 97 99 99 97 93 95
26 26 25 26 29 33 43 48 52 55 56 58 58 60 61 87 93 75 87 53 48 42 39 64 83 85 77 80 81 80 86 97 97
32 33 36 40 46 51 73 68 59 56 52 51 51 54 55 84 69 64 72 45 39 39 73 85 86 87 72 62 56 60 60 65 86
34 41 44 44 59 67 86 62 57 52 49 48 46 42 41 40 37 40 54 34 79 90 89 90 98 92 82 76 66 46 42 39 40
37 40 44 50 62 82 64 55 54 53 55 55 50 38 33 30 34 54 41 87 89 98 98 98 89 88 82 57 31 31 29 28 30
91 43 42 53 81 83 60 55 54 55 58 58 45 30 27 34 46 75 78 79 83 85 82 81 78 66 36 32 31 30 30 29 29
91 87 52 49 65 70 57 57 57 56 58 56 40 29 24 55 69 90 87 87 87 63 41 38 48 32 30 28 25 21 18 17 17
96 96 98 96 84 86 56 58 55 55 54 56 49 30 21 54 78 85 90 85 72 60 36 29 33 29 27 20 14 12 11 10 10
97 100 99 98 96 84 49 52 55 56 56 57 56 32 19 27 71 90 62 84 73 48 30 29 27 23 18 16 12 11 12 12 13
91 98 98 93 91 64 54 52 54 58 58 60 60 32 20 24 49 82 40 33 34 30 26 26 25 21 19 13 13 13 14 14 14
88 95 79 89 87 72 63 55 53 60 61 63 64 34 23 19 20 34 74 24 28 28 24 22 19 19 15 15 14 15 15 14 14
57 92 92 89 86 66 67 61 62 68 64 66 67 38 24 24 23 20 24 33 33 24 22 20 18 17 15 16 17 18 17 16 14
62 78 93 96 89 64 69 67 70 74 74 71 71 43 26 24 23 21 22 22 24 29 19 20 18 18 17 18 18 18 18 17 16
73 70 66 93 82 66 69 73 74 80 82 76 73 49 29 27 24 26 23 23 23 23 22 20 22 20 19 19 19 20 19 17 15
72 75 75 66 57 61 64 79 77 85 87 81 72 51 31 28 26 27 24 24 24 23 24 26 28 25 23 21 21 22 20 16 16
62 67 74 80 59 57 62 84 81 83 88 84 58 48 43 32 29 28 25 25 25 26 26 27 31 30 27 24 24 24 21 16 17
59 55 64 67 72 59 62 84 80 76 83 85 74 50 45 45 35 30 27 27 26 28 30 30 31 33 30 27 27 26 21 17 18
61 57 67 63 62 69 69 89 80 77 82 84 84 76 41 39 43 36 32 29 29 29 31 33 33 34 32 29 29 27 21 19 19
52 53 56 64 63 65 73 84 82 80 80 80 81 81 61 39 37 42 38 35 32 31 33 36 36 35 33 32 32 28 21 21 20
Wind_Speed
8 9 11 12 12 11 7 4 4 6 8 8 7 7 6 7 5 6 5 5 4 3 3 4 4 5 6 4 5 6 1 3 1
10 10 11 12 11 9 7 7 7 7 6 4 5 4 4 5 4 4 4 3 2 3 2 2 2 4 2 7 8 9 6 12 4
11 11 12 12 11 10 8 7 6 5 4 3 3 3 4 4 3 1 2 1 2 2 0 4 5 5 6 7 6 5 4 4 8
10 10 11 12 11 10 7 5 4 4 4 3 3 3 3 3 1 1 2 3 4 2 2 3 3 1 4 6 8 7 5 4 5
9 10 10 10 10 9 7 4 4 3 3 3 3 2 1 0 2 2 2 4 3 6 4 3 1 6 6 7 9 6 6 6 5
12 11 10 10 10 9 7 5 4 3 2 1 1 1 1 3 3 1 3 7 7 8 6 4 5 9 11 8 4 3 3 3 3
11 13 12 12 11 11 8 6 5 4 2 1 1 2 3 2 1 2 4 6 8 7 8 8 7 8 3 2 3 3 3 3 3
13 11 14 14 13 11 10 8 7 5 4 3 3 4 3 1 2 6 7 6 7 4 4 7 5 3 1 2 3 4 4 5 5
15 14 13 12 12 12 12 11 9 8 6 5 5 6 5 3 6 8 13 13 9 6 7 4 3 2 1 2 3 3 4 5 6
16 16 16 14 13 13 14 13 12 10 9 8 7 7 6 5 6 6 13 14 13 10 5 4 3 2 2 2 3 3 4 5 6
18 17 20 18 15 16 15 15 14 13 11 10 9 9 8 7 8 7 10 13 11 9 6 5 5 4 3 3 3 3 4 5 7
19 18 21 20 18 18 19 18 17 16 14 12 11 10 9 9 10 9 7 10 10 10 8 7 6 5 5 5 5 5 6 7 8
24 20 22 20 19 22 21 20 19 18 16 14 13 13 12 11 11 12 12 10 10 11 9 9 7 7 6 6 6 8 9 10 11
27 25 22 21 22 25 24 22 20 20 18 16 15 15 14 14 14 14 14 14 14 12 11 10 9 8 8 8 8 10 11 13 13
27 28 27 23 25 28 27 25 23 22 20 18 18 17 17 17 16 16 17 17 16 15 13 12 12 11 10 10 11 11 13 14 13
30 31 30 30 31 31 29 27 27 26 23 20 19 19 20 20 19 19 19 20 18 17 16 16 15 14 13 13 13 14 14 13 14
34 34 34 32 33 34 33 33 30 30 27 23 13 9 16 23 23 23 23 22 22 20 19 19 18 17 16 16 16 17 15 13 14
40 38 37 35 35 37 37 36 34 32 29 30 20 9 11 12 22 27 26 26 25 24 23 22 22 20 20 18 19 19 18 17 17
44 42 41 39 37 39 39 38 33 32 34 34 34 31 15 9 8 21 27 28 28 27 26 25 25 22 21 20 21 23 21 21 20
41 45 44 42 40 39 40 40 37 36 38 38 36 36 34 27 17 11 20 28 30 30 29 28 26 24 23 23 25 24 24 23 23
Wind_Direction
135 136 153 177 177 170 180 162 128 115 113 109 106 99 94 97 112 93 85 73 58 103 102 71 29 80 64 73 75 19 84 299 7
137 135 137 146 154 162 152 139 126 114 112 104 111 111 102 121 114 94 88 80 63 79 74 91 137 138 139 107 121 108 69 43 164
146 140 136 138 141 141 137 133 123 119 119 115 113 115 108 107 120 105 68 29 25 29 79 204 226 229 246 244 242 246 229 84 106
153 150 149 147 145 142 134 145 137 134 128 118 116 115 115 117 147 83 51 342 342 353 171 238 269 174 270 284 281 271 265 248 206
168 163 163 163 158 149 180 174 159 147 133 126 124 117 102 300 322 328 324 351 75 132 180 222 341 304 313 309 293 284 290 290 272
176 181 179 177 171 182 194 186 183 174 157 132 136 154 283 302 300 38 53 120 142 163 190 226 291 308 309 321 340 347 338 331 313
182 190 190 191 193 201 210 204 204 212 240 272 267 296 301 289 267 170 161 200 217 225 254 269 285 303 341 346 15 15 8 5 340
194 199 199 203 210 213 214 217 218 221 239 263 280 291 284 212 140 166 172 226 241 250 286 283 273 283 330 352 19 2 359 355 348
205 206 203 205 209 215 219 224 229 230 240 255 271 281 272 187 154 192 191 217 245 273 289 254 246 267 310 336 358 346 342 348 338
212 214 214 211 216 217 225 230 235 235 241 254 265 270 262 221 175 194 209 232 252 271 254 243 245 257 283 325 345 343 340 343 337
221 220 219 221 224 229 232 233 234 238 243 253 259 259 250 228 202 190 219 233 244 247 237 235 243 265 287 308 315 322 330 330 326
227 222 229 226 229 235 237 236 234 235 240 252 257 256 247 237 227 213 212 232 235 236 232 231 246 263 283 300 313 318 321 326 323
235 226 227 226 229 237 238 237 234 234 239 249 254 253 247 237 233 233 228 225 231 234 233 240 241 260 264 279 294 309 318 322 323
238 232 228 224 230 236 237 237 235 234 239 246 251 250 246 240 237 236 233 232 229 230 232 236 247 256 262 271 285 304 315 318 318
244 238 234 226 231 236 236 236 235 233 237 244 249 248 244 241 239 234 234 233 232 232 239 235 246 251 260 268 279 293 302 302 303
244 241 241 234 236 239 238 236 233 232 233 240 243 246 244 241 238 234 234 235 235 236 237 240 250 254 259 266 275 284 295 295 297
248 247 242 237 237 235 235 235 233 230 230 236 227 233 247 241 238 236 233 234 236 238 240 244 249 256 262 268 275 284 292 290 289
245 247 246 242 239 239 237 234 232 231 228 234 227 205 223 219 236 235 234 233 237 240 244 246 250 255 261 270 280 286 292 291 287
243 246 243 246 245 240 239 235 232 229 230 230 232 232 228 204 229 235 235 236 239 240 246 247 250 254 260 268 276 285 289 290 291
251 250 250 248 249 247 241 234 227 229 231 232 232 230 233 236 231 231 236 236 238 239 243 247 250 254 260 268 275 282 285 289 290